Regional Weather Roundup
Issued by NWS Newport/Morehead, NC

Home | Current Version | Previous Version | Text Only | Print | Product List | Glossary On
Versions: 1 2 3 4 5 6 7 8 9 10 11 12 13 14 15 16 17 18 19 20 21 22 23 24 25 26 27 28 29 30 31 32 33 34 35 36 37 38 39 40 41 42 43 44 45 46 47 48 49 50
000
ASUS42 KMHX 021924
RWRMHX
WEATHER ROUNDUP FOR EASTERN NORTH CAROLINA
NATIONAL WEATHER SERVICE NEWPORT/MOREHEAD CITY NC
200 PM EST MON MAR 02 2015

NOTE: "FAIR" INDICATES FEW OR NO CLOUDS BELOW 12,000 FEET
WITH NO SIGNIFICANT WEATHER AND/OR OBSTRUCTIONS TO VISIBILITY

NCZ015>017-031-032-045>047-102-103-022000-
NORTH COAST

CITY           SKY/WX    TMP DP  RH WIND       PRES   REMARKS
EDENTON        SUNNY     52  42  68 E8        30.24S
ELIZABETH CITY SUNNY     50  37  61 NE15      30.25F
KITTY HAWK     PTCLDY    42  37  82 N9G20     30.24S
MANTEO         SUNNY     45  36  70 N18G24    30.26S

$$

NCZ045>047-081-094-103-104-022000-
CENTRAL COAST

CITY           SKY/WX    TMP DP  RH WIND       PRES   REMARKS
FRISCO         CLOUDY    44  41  89 N12G22    30.24R
SWANQUARTER      N/A     50 N/A N/A N17G25    30.21R

$$

NCZ095-097-098-100-101-022000-
SOUTHERN COAST

CITY           SKY/WX    TMP DP  RH WIND       PRES   REMARKS
BEAUFORT       SUNNY     60  49  66 N10       30.21F
CEDAR ISLAND     N/A     52 N/A N/A NW9       30.27R
JACKSONVILLE   MOSUNNY   61  48  62 NW10      30.20F
PINEY ISLAND     N/A    N/A N/A N/A MISG      30.22S
WILMINGTON     PTSUNNY   58  49  72 VRB3      30.21F


$$

NCZ011>013-027>030-043-044-078>080-089-090>093-098-022000-
COASTAL PLAIN

CITY           SKY/WX    TMP DP  RH WIND       PRES   REMARKS
AHOSKIE        SUNNY     51  42  71 NE8       30.24S
CLINTON        SUNNY     60  49  66 NW10      30.22F
ELIZABETHTOWN  MOSUNNY   60  49  65 NE5       30.22S
GOLDSBORO      SUNNY     61  54  79 N16       30.20F
GREENVILLE     SUNNY     61  43  51 N10G16    30.22S
HAVELOCK       SUNNY     62  47  57 N13       30.22F
KENANSVILLE    SUNNY     60  46  59 N10       30.23S
KINSTON        MOSUNNY   61  46  59 N13       30.22F
NEW BERN       SUNNY     62  45  53 NW13G20   30.22F
RICHLANDS      MOSUNNY   61  46  59 N9        30.22S
ROCKY MOUNT    SUNNY     60  39  45 NW15G23   30.22F
WASHINGTON     SUNNY     58  43  55 N12       30.22R
WHITEVILLE     PTSUNNY   56  49  75 N5        30.22F

$$

AMZ130-135-150-152-154-156-158-170-250-252-270-ANZ085-086-088-633-658-670-022000-
MARINE OBSERVATIONS

STATION/POSITION TIME  TEMP    WIND        PRES    WAVE   SWELL
                       AIR SEA DIR/SP/G            HT/PER HT/PER
                 (UTC) (F)     (DEG/KT/KT) (MB)    (FT/S) (FT/S)
CHESAPEAKE LIGHT 1900   38     360/ 13/ 15 1025.1
64 E VA BEACH    1850   44 51  350/ 21/ 27 1023.1    4/ 4   2/ 7
DUCK             1900   37 35   10/ 10/ 11 1023.6
2 E DUCK         1811      34                N/A     3/ 7
10 NE DUCK       1822      37                N/A     3/ 7
OREGON INLET     1900   40 42  350/ 14/ 18 1024.2
HATTERAS CG      1900   42 43   10/ 20/ 24 1024.1
CAPE LOOKOUT     1900   54     300/  3/  3 1022.9
BEAUFORT LAB     1900   58 44   10/  9/ 11 1021.9
27 SE WRIGHTSVLE NOT AVBL
5 SE WRIGHTSVLE  NOT AVBL
225 S CAPE HAT   1850   72 74  290/ 12/ 16 1022.9    5/ 9   5/ 9
41 SE CHARLESTON 1850   59 68  260/ 12/ 14 1023.1    4/10   3/10

$$


USA.gov is the U.S. government's official web portal to all federal, state and local government web resources and services.